www.pogodaiklimat.ru

Погода и климат >> Архив погоды >> Самоа >> Станция Togitogiga


ПОГОДА на Станции Togitogiga

  • Прогноз погоды на Станции Togitogiga
  • Монитор погоды на Станции Togitogiga

АРХИВ ПОГОДЫ на Станции Togitogiga

Время (UTC), дата Ветер
(напр.,м/с)
 
Видим.   Явления Облачность Т
(С)
Тd
(С)
f
(%)
Тe
(С)
Тes
(С)
Комфортность P
(гПа)
Po
(гПа)
Тmin
(С)
Tmax
(С)
R
(мм)
R24
(мм)
S
(см)
09 19.03 С 1 н/о н/о +22.6 +22.6 100 +31 +31 очень
душно
1011.8 1011.4
12 19.03 С 1 н/о н/о +21.8 +21.8 100 +28 +28 душно 1010.6 1010.2 +29.0
15 19.03 С 1 н/о н/о +21.6 +21.6 100 +28 +28 очень
душно
1009.6 1009.2
18 19.03 штиль 0 н/о н/о +22.4 +22.4 100 +30 +30 очень
душно
1010.9 1010.5
21 19.03 С 1 н/о н/о +28.2 +28.2 100 +47 +47 опасность
перегрева
1012.4 1012.0
00 20.03 С 1 н/о н/о +28.3 +28.3 100 +48 +48 опасность
перегрева
1010.7 1010.3 +20.2
03 20.03 С 1 н/о н/о +27.1 +27.1 100 +43 +43 опасность
перегрева
1009.5 1009.1
06 20.03 штиль 0 н/о н/о +24.3 +24.3 100 +34 +34 очень
душно
1010.4 1010.0
09 20.03 штиль 0 н/о н/о +22.9 +22.9 100 +32 +32 очень
душно
1012.3 1011.9
12 20.03 штиль 0 н/о н/о +22.5 +22.5 100 +30 +30 очень
душно
1011.7 1011.3 +30.6
15 20.03 штиль 0 н/о н/о +22.7 +22.7 100 +31 +31 очень
душно
1010.2 1009.8
18 20.03 штиль 0 н/о н/о +22.8 +22.8 100 +31 +31 очень
душно
1011.7 1011.3 0.5
21 20.03 штиль 0 н/о н/о +26.3 +26.3 100 +40 +40 очень
душно
1012.6 1012.2
00 21.03 С 1 н/о н/о +24.5 +24.5 100 +34 +34 очень
душно
1011.6 1011.2 +21.4 3 16
03 21.03 штиль 0 н/о н/о +22.7 +22.7 100 +31 +31 очень
душно
1010.7 1010.3
06 21.03 штиль 0 н/о н/о +23.2 +23.2 100 +33 +33 очень
душно
1010.7 1010.3 15
09 21.03 штиль 0 н/о н/о +22.6 +22.6 100 +31 +31 очень
душно
1012.9 1012.5
12 21.03 штиль 0 н/о н/о +22.0 +22.0 100 +29 +29 очень
душно
1012.0 1011.6 +29.3
15 21.03 штиль 0 н/о н/о +21.6 +21.6 100 +28 +28 очень
душно
1009.8 1009.4
18 21.03 штиль 0 н/о н/о +21.3 +21.3 100 +27 +27 душно 1011.5 1011.1
21 21.03 С 1 н/о н/о +26.5 +26.5 100 +40 +40 очень
душно
1012.7 1012.3
00 22.03 С 1 н/о н/о +23.3 +23.3 100 +33 +33 очень
душно
1012.4 1012.0 +22.2 13 32
03 22.03 С 1 н/о н/о +25.5 +25.5 100 +37 +37 очень
душно
1010.1 1009.7 0.5
06 22.03 штиль 0 н/о н/о +23.1 +23.1 100 +32 +32 очень
душно
1012.1 1011.7 72
09 22.03 штиль 0 н/о н/о +22.7 +22.7 100 +31 +31 очень
душно
1012.5 1012.1
12 22.03 С 1 н/о н/о +21.1 +21.1 100 +26 +26 душно 1012.8 1012.4 +26.7 18
15 22.03 штиль 0 н/о н/о +21.3 +21.3 100 +27 +27 душно 1010.0 1009.6
18 22.03 штиль 0 н/о н/о +21.8 +21.8 100 +28 +28 душно 1010.6 1010.2
21 22.03 С 1 н/о н/о +25.9 +25.9 100 +38 +38 очень
душно
1011.8 1011.4
00 23.03 С 1 н/о н/о +28.5 +28.5 100 +48 +48 опасность
перегрева
1011.1 1010.7 +21.0 131
03 23.03 С 1 н/о н/о +28.9 +28.9 100 +50 +50 опасность
перегрева
1010.1 1009.7
06 23.03 штиль 0 н/о н/о +24.4 +24.4 100 +34 +34 очень
душно
1010.9 1010.5 1
09 23.03 штиль 0 н/о н/о +23.2 +23.2 100 +33 +33 очень
душно
1012.5 1012.1
12 23.03 штиль 0 н/о н/о +22.9 +22.9 100 +32 +32 очень
душно
1011.1 1010.7 +27.9
15 23.03 штиль 0 н/о н/о +22.6 +22.6 100 +31 +31 очень
душно
1009.9 1009.5 3
18 23.03 С 1 н/о н/о +22.3 +22.3 100 +30 +30 очень
душно
1011.3 1010.9 2
21 23.03 С 1 н/о н/о +25.6 +25.6 100 +37 +37 очень
душно
1011.8 1011.4
00 24.03 С 1 н/о н/о +27.9 +27.9 100 +46 +46 опасность
перегрева
1010.7 1010.3 +20.5 6
03 24.03 С 1 н/о н/о +28.1 +28.3 100 +47 +47 опасность
перегрева
1009.0 1008.6
06 24.03 штиль 0 н/о н/о +24.5 +24.5 100 +34 +34 очень
душно
1010.0 1009.6
09 24.03 штиль 0 н/о н/о +23.3 +23.3 100 +33 +33 очень
душно
1011.9 1011.5
12 24.03 штиль 0 н/о н/о +22.4 +22.4 100 +30 +30 очень
душно
1011.6 1011.2 +29.6
15 24.03 штиль 0 н/о н/о +22.0 +22.0 100 +29 +29 очень
душно
1010.6 1010.2
18 24.03 штиль 0 н/о н/о +21.9 +21.9 100 +29 +29 очень
душно
1011.4 1011.0
21 24.03 С 1 н/о н/о +26.2 +26.2 100 +39 +39 очень
душно
1012.6 1012.2 4
00 25.03 С 1 н/о н/о +29.6 +29.6 100 +53 +53 опасность
перегрева
1010.3 1009.9 +22.0 4
03 25.03 штиль 0 н/о н/о +28.3 +28.3 100 +48 +48 опасность
перегрева
1009.4 1009.0
06 25.03 штиль 0 н/о н/о +24.9 +24.9 100 +35 +35 очень
душно
1010.3 1009.9
09 25.03 штиль 0 н/о н/о +24.1 +24.1 100 +33 +33 очень
душно
1011.9 1011.5
12 25.03 С 1 н/о н/о +23.4 +23.4 100 +33 +33 очень
душно
1011.5 1011.1 +29.9 0.5
15 25.03 С 1 н/о н/о +22.9 +22.9 100 +32 +32 очень
душно
1010.9 1010.5 4
18 25.03 штиль 0 н/о н/о +22.7 +22.7 100 +31 +31 очень
душно
1011.9 1011.5 4
21 25.03 С 1 н/о н/о +25.2 +25.2 100 +36 +36 очень
душно
1012.6 1012.2
00 26.03 С 1 н/о н/о +24.0 +24.0 100 +33 +33 очень
душно
1010.5 1010.1 +21.8 6 37
03 26.03 С 1 н/о н/о +26.4 +26.4 100 +40 +40 очень
душно
1009.2 1008.8
06 26.03 штиль 0 н/о н/о +24.0 +24.0 100 +33 +33 очень
душно
1010.4 1010.0 0.5

 

Местоположение метеостанции Станция Togitogiga (Самоа): широта -14.03 долгота -171.77 высота над уровнем моря 4 м.

В архиве по умолчанию представлена погода на Станции Togitogiga за последнюю неделю. Архивные данные за месяц целиком и за предыдущие месяцы, начиная с января 2011 года, Вы можете получить, выбрав интересующий диапазон дат из раскрывающегося списка и нажав кнопку "Ввод!".


*Определитесь, кто Вы:
робот инопланетянин человек

Внимание! Время в таблицах - всемирное. Для получения местного времени необходимо прибавить поправку, которая равна 13 ч.

Смотрите также архив погоды в соседних городах и на ближайших метеорологических станциях:

Погода на Станции Le Mafa (Самоа) (20 км)
Погода Апиа (Американское Самоа) (27 км)
Погода в Луфилуфи (Самоа) (28 км)
Погода на Фалеоло восток (Самоа) (33 км)
Погода Фалеоло (Американское Самоа) (35 км)
Погода в Аэропорту Фалеоло (Самоа) (35 км)
Погода на Острове Маноно (Самоа) (42 км)
Погода в Аэропорту Маота (Самоа) (62 км)
Погода на Станции Le Piu Tai (Самоа) (92 км)
Погода на Станции Mount Talu (Самоа) (115 км)

Пояснения к столбцам:

Ветер - указаны скорость ветра в м/с - средняя за 10 мин, порывы в срок и между сроками (в фигурных скобках) и направление, откуда дует ветер: С - северный, СВ - северо-восточный, В - восточный, ЮВ - юго-восточный, Ю - южный, ЮЗ - юго-западный, З - западный, СЗ - северо-западный.
Видимость - горизонтальная дальность видимости в метрах или километрах. При видимости от 1 до 10 км при отсутствии осадков обычно наблюдается дымка, при ухудшении видимости до 1 км и менее - туман. В сухую погоду видимость может ухудшаться дымом, пылью или мглою.
Явления - указаны атмосферные явления, наблюдавшиеся в срок или в последний час перед сроком; фигурными скобками обозначены явления, наблюдавшиеся между сроками (за 1-3 часа до срока); квадратными скобками обозначены град или гололедные отложения с указанием их диаметра в мм.
Облачность - указаны через наклонную черту общая и нижняя облачность в баллах и высота нижней границы облаков в метрах; квадратными скобками обозначены формы облаков: Ci - перистые, Cs - перисто-слоистые, Cc - перисто-кучевые, Ac - высококучевые, As - высокослоистые, Sc - слоисто-кучевые, Ns - слоисто-дождевые, Cu - кучевые, Cb - кучево-дождевые. Подробнее классификацию облаков см. в Атласе облаков (PDF).
T - Температура воздуха - температура, измеренная на высоте 2 м над землей.
Td - Температура точки росы - температура, при понижении до которой содержащийся в воздухе водяной пар достигнет насыщения.
f - Относительная влажность воздуха - влажноcть воздуха, измеренная на высоте 2 м над землей.
Te - Эффективная температура - температура, которую ощущает одетый по сезону человек в тени. Характеристика душности погоды. При расчете учитывается влияние влажности воздуха и скорости ветра на теплоощущения человека.
Tes - Эффективная температура на солнце - температура, которую ощущает человек, с поправкой на солнечный нагрев. Характеристика знойности погоды. Зависит от высоты солнца над горизонтом, облачности и скорости ветра. Ночью, в пасмурную погоду, а также при ветре 12 м/с и более поправка равна нулю.
P - Атмосферное давление - приведенное к уровню моря атмосферное давление.
Po - Атмосферное давление - измеренное на уровне метеостанции атмосферное давление.
Tmin - Минимальная температура - минимум температуры воздуха на высоте 2 м над землей.
Tmax - Максимальная температура - максимум температуры воздуха на высоте 2 м над землей.
R - Количество осадков - Количество выпавших осадков за период времени, мм. При наведении курсора мыши на число - период времени, за который выпало указанное количество осадков.
R24 - Количество осадков - Количество выпавших осадков за 24 часа, мм.
S - Снежный покров - Высота снежного покрова, см. При наведении курсора мыши на число - состояние снежного покрова и степень покрытия местности в баллах.